Weather Roundup
Issued by NWS Chicago, IL

Home | Current Version | Previous Version | Text Only | Print | Product List | Glossary Off
Versions: 1 2 3 4 5 6 7 8 9 10 11 12 13 14 15 16 17 18 19 20 21 22 23 24 25 26 27 28 29 30 31 32 33 34 35 36 37 38 39 40 41 42 43 44 45 46 47 48 49 50

000
NZUS59 KLOT 031108
HRRLOT

CHICAGO AREA WEATHER ROUNDUP
NATIONAL WEATHER SERVICE CHICAGO/ROMEOVILLE IL
500 AM CST SAT DEC 03 2016

NOTE: "FAIR" INDICATES FEW OR NO CLOUDS BELOW 12,000 FEET WITH NO
SIGNIFICANT WEATHER AND/OR OBSTRUCTIONS TO VISIBILITY.

* THESE STATIONS ARE NOT UNDER NWS QUALITY CONTROL. THEY ALSO MAY NOT
  REPORT WEATHER SUCH AS PRECIPITATION OR FOG.

ILZ005-006-012>014-019>023-031200-
NORTHEAST ILLINOIS

CITY           SKY/WX    TMP DP  RH WIND       PRES   REMARKS
OHARE          CLOUDY    32  23  69 W9        30.34R WCI  24
MIDWAY         CLOUDY    34  21  59 W10       30.35R WCI  26
AURORA         CLOUDY    33  26  75 NW5       30.35R WCI  29
JOLIET*        CLOUDY    35  27  74 NW3       30.36S
WAUKEGAN       NOT AVBL
DUPAGE AIRPORT CLOUDY    32  22  66 W9        30.34R WCI  24
WHEELING       CLOUDY    32  22  66 W8        30.35R WCI  25
KANKAKEE*      CLOUDY    34  28  79 W8        30.36R WCI  27
MORRIS*        CLOUDY    33  26  74 W5        30.35S WCI  29
LEWIS AIRPORT* CLOUDY    32  27  82 NW7       30.35R WCI  26
NORTHERLY ISL    N/A     34  23  64 W10         N/A  WCI  26
$$

WIZ051-052-058>065-066-070>072-031200-
SOUTHEAST WISCONSIN

CITY           SKY/WX    TMP DP  RH WIND       PRES   REMARKS
MILWAUKEE      CLOUDY    33  22  63 W7        30.32R WCI  27
KENOSHA*       CLOUDY    31  24  75 W7        30.33R WCI  24
RACINE*        CLOUDY    32  23  69 W6        30.34R WCI  26
$$

INZ001>003-010>013-019-020-031200-
NORTHWEST INDIANA

CITY           SKY/WX    TMP DP  RH WIND       PRES   REMARKS
GARY*          CLOUDY    34  25  69 W7        30.35R WCI  28
MICHIGAN CITY* NOT AVBL
RENSSELAER*    NOT AVBL
VALPARAISO     CLOUDY    33  23  66 W12       30.34S WCI  24
$$

LMZ740>746-031200-
SOUTHERN LAKE MICHIGAN

STATION/POSITION TIME  SKY/WX   TEMP WIND        PRES    VSBY
                                AIR  DIR/SP/G
                 (UTC)          (F)  (DEG/KT/KT) (MB)    (MI)
HARRISON CRIB    1040            35  270/ 11/ 12   N/A
BURNHAM HARBOR   1100            34  250/  9/ 10   N/A
CALUMET HARBOR   1048            33  240/  5/  9 1026.9R
BURNS HARBOR     1040            35  250/ 10/ 13 1027.8R
MICHIGAN CITY    1040            36  230/ 15/ 17   N/A
$$

ABBREVIATIONS USED IN REMARKS
   TC - TEMPERATURE IN CELSIUS
  WCI - WIND CHILL INDEX
   HX - HEAT INDEX
  VSB - VISIBILITY
$$




USA.gov is the U.S. government's official web portal to all federal, state and local government web resources and services.